Location: Newark
(30.0333°N, 31.2167°E)
Time: 13:02:05
(UTC+00:00)

Tiros 1 - Pass Details

Date: 28 January 2020
Orbit: 631 x 664 km, 48.4° (Epoch: 24 February)

Event Time Altitude Azimuth Distance (km) Brightness Sun altitude
Rises 14:03:35 0° 324° (NW) 2,963 10.6 15.6°
Reaches altitude 10° 14:06:57 10° 348° (NNW) 2,059 9.6 14.9°
Maximum altitude 14:09:35 15° 22° (NNE) 1,772 9.0 14.5°
Drops below altitude 10° 14:12:14 10° 56° (ENE) 2,067 9.2 14.0°
Sets 14:15:37 0° 81° (E) 2,982 10.0 13.3°
